• In Austria
  • List of Countries
  • For 7 days
  • Water Temperature
  • Satellite Maps
  • Weather Map
  • News
  • Weather Widgets
  • user-avatar
    Login

    Hourly Weather Kabare

    Today, 21 May, Monday

    Time Temperature Precipitation Wind Pressure Humidity
    00:00 +16°C° 0.3 mm 1 mps 623 mmHg 91%
    01:00 +16°C° 0.3 mm 1 mps 623 mmHg 92%
    02:00 +15°C° 0 mm 1 mps 623 mmHg 92%
    03:00 +15°C° 0.1 mm 1 mps 623 mmHg 93%
    04:00 +15°C° 0.1 mm 1 mps 623 mmHg 93%
    05:00 +15°C° 0.1 mm 1 mps 623 mmHg 93%
    06:00 +16°C° 0 mm 1 mps 623 mmHg 87%
    07:00 +19°C° 0 mm 1 mps 624 mmHg 81%
    08:00 +21°C° 0 mm 1 mps 625 mmHg 71%
    09:00 +23°C° 0 mm 1 mps 625 mmHg 64%
    10:00 +25°C° 0 mm 1 mps 625 mmHg 56%
    11:00 +26°C° 0 mm 1 mps 626 mmHg 48%
    12:00 +27°C° 0.1 mm 1 mps 625 mmHg 50%
    13:00 +27°C° 0.1 mm 1 mps 625 mmHg 53%
    14:00 +27°C° 0.1 mm 1 mps 625 mmHg 55%
    15:00 +26°C° 0.5 mm 1 mps 624 mmHg 60%
    16:00 +24°C° 0.5 mm 1 mps 624 mmHg 65%
    17:00 +23°C° 0.5 mm 1 mps 623 mmHg 70%
    18:00 +21°C° 0.4 mm 1 mps 623 mmHg 75%
    19:00 +19°C° 0.4 mm 1 mps 623 mmHg 80%
    20:00 +18°C° 0.4 mm 1 mps 623 mmHg 85%
    21:00 +18°C° 0.3 mm 1 mps 623 mmHg 86%
    22:00 +16°C° 0.3 mm 1 mps 624 mmHg 87%
    23:00 +16°C° 0.3 mm 1 mps 624 mmHg 88%

    Tomorrow, 22 May, Tuesday

    Time Temperature Precipitation Wind Pressure Humidity
    00:00 +16°C° 0.3 mm 1 mps 624 mmHg 87%
    01:00 +16°C° 0.3 mm 1 mps 624 mmHg 87%
    02:00 +16°C° 0.3 mm 1 mps 623 mmHg 86%
    03:00 +16°C° 0.5 mm 1 mps 623 mmHg 86%
    04:00 +16°C° 0.5 mm 1 mps 623 mmHg 87%
    05:00 +16°C° 0.5 mm 1 mps 623 mmHg 87%
    06:00 +16°C° 0.7 mm 1 mps 624 mmHg 85%
    07:00 +18°C° 0.7 mm 1 mps 624 mmHg 82%
    08:00 +19°C° 0.7 mm 1 mps 625 mmHg 79%
    09:00 +20°C° 0.4 mm 1 mps 625 mmHg 75%
    10:00 +21°C° 0.4 mm 1 mps 626 mmHg 71%
    11:00 +22°C° 0.4 mm 1 mps 626 mmHg 67%
    12:00 +23°C° 0.1 mm 1 mps 626 mmHg 62%
    13:00 +24°C° 0.1 mm 1 mps 626 mmHg 58%
    14:00 +25°C° 0.1 mm 1 mps 626 mmHg 54%
    15:00 +23°C° 0.3 mm 1 mps 625 mmHg 61%
    16:00 +22°C° 0.3 mm 1 mps 625 mmHg 68%
    17:00 +19°C° 0.3 mm 0 mps 624 mmHg 75%
    18:00 +18°C° 0.5 mm 0 mps 624 mmHg 79%
    19:00 +17°C° 0.5 mm 0 mps 624 mmHg 83%
    20:00 +15°C° 0.5 mm 0 mps 625 mmHg 87%
    21:00 +16°C° 0.5 mm 1 mps 625 mmHg 87%
    22:00 +16°C° 0.5 mm 1 mps 625 mmHg 88%
    23:00 +16°C° 0.5 mm 1 mps 625 mmHg 88%

    Day after tomorrow, 23 May, Wednesday

    Time Temperature Precipitation Wind Pressure Humidity
    00:00 +16°C° 0.6 mm 1 mps 625 mmHg 89%
    01:00 +15°C° 0.6 mm 1 mps 624 mmHg 89%
    02:00 +15°C° 0.6 mm 1 mps 624 mmHg 89%
    03:00 +15°C° 0.5 mm 1 mps 624 mmHg 89%
    04:00 +15°C° 0.5 mm 1 mps 624 mmHg 90%
    05:00 +15°C° 0.5 mm 1 mps 624 mmHg 90%
    06:00 +16°C° 0.2 mm 1 mps 624 mmHg 88%
    07:00 +16°C° 0.2 mm 1 mps 625 mmHg 86%
    08:00 +18°C° 0.2 mm 1 mps 625 mmHg 84%
    09:00 +21°C° 0.1 mm 1 mps 626 mmHg 72%
    10:00 +23°C° 0.1 mm 1 mps 627 mmHg 60%
    11:00 +26°C° 0.1 mm 1 mps 628 mmHg 49%
    12:00 +27°C° 0.1 mm 1 mps 627 mmHg 48%
    13:00 +25°C° 0.1 mm 0 mps 627 mmHg 47%
    14:00 +26°C° 0.1 mm 0 mps 626 mmHg 46%
    15:00 +26°C° 0.3 mm 1 mps 625 mmHg 53%
    16:00 +24°C° 0.3 mm 1 mps 625 mmHg 61%
    17:00 +23°C° 0.3 mm 1 mps 624 mmHg 68%
    18:00 +21°C° 0.3 mm 1 mps 624 mmHg 74%
    19:00 +19°C° 0.3 mm 1 mps 625 mmHg 80%
    20:00 +16°C° 0.3 mm 1 mps 625 mmHg 85%
    21:00 +16°C° 0.2 mm 1 mps 625 mmHg 86%
    22:00 +16°C° 0.2 mm 1 mps 625 mmHg 87%
    23:00 +15°C° 0.2 mm 1 mps 625 mmHg 88%

    24 May, Thursday

    Time Temperature Precipitation Wind Pressure Humidity
    00:00 +15°C° 0.1 mm 1 mps 625 mmHg 88%
    01:00 +15°C° 0.1 mm 1 mps 624 mmHg 88%
    02:00 +15°C° 0.1 mm 1 mps 624 mmHg 88%
    03:00 +15°C° 0.1 mm 1 mps 624 mmHg 87%
    04:00 +15°C° 0.1 mm 1 mps 624 mmHg 87%
    05:00 +15°C° 0.1 mm 1 mps 624 mmHg 86%
    06:00 +16°C° 0 mm 1 mps 624 mmHg 80%
    07:00 +19°C° 0 mm 1 mps 625 mmHg 75%
    08:00 +20°C° 0 mm 1 mps 626 mmHg 69%
    09:00 +23°C° 0 mm 1 mps 626 mmHg 60%
    10:00 +25°C° 0 mm 1 mps 627 mmHg 52%
    11:00 +27°C° 0 mm 1 mps 627 mmHg 43%
    12:00 +27°C° 0 mm 1 mps 627 mmHg 43%
    13:00 +28°C° 0 mm 1 mps 626 mmHg 43%
    14:00 +28°C° 0 mm 1 mps 625 mmHg 44%
    15:00 +26°C° 0.1 mm 1 mps 625 mmHg 50%
    16:00 +25°C° 0.1 mm 1 mps 624 mmHg 56%
    17:00 +23°C° 0.1 mm 1 mps 624 mmHg 62%
    18:00 +21°C° 0.3 mm 1 mps 624 mmHg 70%
    19:00 +19°C° 0.3 mm 1 mps 624 mmHg 79%
    20:00 +18°C° 0.3 mm 1 mps 624 mmHg 87%
    21:00 +16°C° 0.5 mm 1 mps 624 mmHg 89%
    22:00 +16°C° 0.5 mm 1 mps 624 mmHg 91%
    23:00 +15°C° 0.5 mm 1 mps 624 mmHg 92%

    25 May, Friday

    Time Temperature Precipitation Wind Pressure Humidity
    00:00 +15°C° 0 mm 1 mps 624 mmHg 92%
    01:00 +15°C° 0 mm 1 mps 623 mmHg 92%
    02:00 +15°C° 0 mm 1 mps 623 mmHg 92%
    03:00 +15°C° 0 mm 1 mps 623 mmHg 91%
    04:00 +15°C° 0 mm 1 mps 623 mmHg 91%
    05:00 +15°C° 0 mm 1 mps 622 mmHg 90%
    06:00 +16°C° 0 mm 1 mps 623 mmHg 82%
    07:00 +19°C° 0 mm 1 mps 624 mmHg 75%
    08:00 +21°C° 0 mm 1 mps 625 mmHg 67%
    09:00 +23°C° 0 mm 1 mps 626 mmHg 58%
    10:00 +26°C° 0 mm 1 mps 626 mmHg 48%
    11:00 +28°C° 0 mm 1 mps 627 mmHg 38%
    12:00 +28°C° 0 mm 1 mps 626 mmHg 39%
    13:00 +28°C° 0 mm 1 mps 625 mmHg 39%
    14:00 +29°C° 0 mm 2 mps 625 mmHg 39%
    15:00 +27°C° 0.1 mm 1 mps 624 mmHg 46%
    16:00 +25°C° 0.1 mm 1 mps 624 mmHg 54%
    17:00 +23°C° 0.1 mm 1 mps 623 mmHg 61%
    18:00 +22°C° 0.1 mm 1 mps 623 mmHg 66%
    19:00 +20°C° 0.1 mm 1 mps 624 mmHg 72%
    20:00 +19°C° 0.1 mm 1 mps 624 mmHg 77%
    21:00 +18°C° 0.1 mm 1 mps 624 mmHg 79%
    22:00 +18°C° 0.1 mm 1 mps 624 mmHg 81%
    23:00 +16°C° 0.1 mm 1 mps 624 mmHg 84%

    26 May, Saturday

    Time Temperature Precipitation Wind Pressure Humidity
    00:00 +16°C° 0 mm 1 mps 623 mmHg 85%
    01:00 +16°C° 0 mm 1 mps 623 mmHg 86%
    02:00 +15°C° 0 mm 1 mps 622 mmHg 87%
    03:00 +15°C° 0 mm 1 mps 622 mmHg 87%
    04:00 +15°C° 0 mm 1 mps 623 mmHg 86%
    05:00 +15°C° 0 mm 1 mps 623 mmHg 86%
    06:00 +18°C° 0 mm 1 mps 623 mmHg 80%
    07:00 +19°C° 0 mm 1 mps 624 mmHg 73%
    08:00 +21°C° 0 mm 1 mps 625 mmHg 66%
    09:00 +23°C° 0 mm 1 mps 626 mmHg 58%
    10:00 +25°C° 0 mm 1 mps 626 mmHg 49%
    11:00 +27°C° 0 mm 1 mps 626 mmHg 41%
    12:00 +28°C° 0 mm 1 mps 626 mmHg 40%
    13:00 +28°C° 0 mm 1 mps 625 mmHg 40%
    14:00 +29°C° 0 mm 1 mps 625 mmHg 39%
    15:00 +27°C° 0.1 mm 1 mps 624 mmHg 46%
    16:00 +26°C° 0.1 mm 1 mps 624 mmHg 53%
    17:00 +22°C° 0.1 mm 0 mps 623 mmHg 61%
    18:00 +22°C° 0.5 mm 1 mps 623 mmHg 69%
    19:00 +19°C° 0.5 mm 1 mps 624 mmHg 78%
    20:00 +16°C° 0.5 mm 1 mps 624 mmHg 86%
    21:00 +16°C° 0.1 mm 1 mps 624 mmHg 87%
    22:00 +15°C° 0.1 mm 1 mps 624 mmHg 87%
    23:00 +15°C° 0.1 mm 1 mps 624 mmHg 88%
    Show more